TimeCST,TemperatureF,Dew PointF,Humidity,Sea Level PressureIn,VisibilityMPH,Wind Direction,Wind SpeedMPH,Gust SpeedMPH,PrecipitationIn,Events,Conditions,WindDirDegrees,DateUTC
12:52 AM,39.0,28.9,67,29.79,10.0,SW,11.5,-,N/A,,Clear,220,2012-12-01 06:52:00
1:52 AM,39.0,28.0,65,29.77,10.0,Calm,Calm,-,N/A,,Clear,0,2012-12-01 07:52:00
2:52 AM,39.9,28.0,63,29.75,10.0,SW,9.2,-,N/A,,Clear,230,2012-12-01 08:52:00
3:52 AM,39.0,28.0,65,29.74,10.0,WSW,5.8,-,N/A,,Clear,250,2012-12-01 09:52:00
4:52 AM,37.9,28.9,70,29.75,10.0,WSW,4.6,-,N/A,,Clear,250,2012-12-01 10:52:00
5:52 AM,41.0,30.9,67,29.77,10.0,WNW,4.6,-,N/A,,Clear,300,2012-12-01 11:52:00
6:52 AM,43.0,33.1,68,29.77,10.0,WSW,6.9,-,N/A,,Clear,250,2012-12-01 12:52:00
7:52 AM,43.0,33.1,68,29.80,10.0,West,5.8,-,N/A,,Clear,260,2012-12-01 13:52:00
8:52 AM,39.0,32.0,76,29.82,10.0,SSW,11.5,-,N/A,,Clear,210,2012-12-01 14:52:00
9:52 AM,51.1,35.1,54,29.81,10.0,WSW,9.2,-,N/A,,Clear,250,2012-12-01 15:52:00
10:52 AM,57.9,37.0,46,29.81,10.0,WNW,8.1,-,N/A,,Clear,290,2012-12-01 16:52:00
11:52 AM,62.1,36.0,38,29.80,10.0,West,11.5,-,N/A,,Clear,280,2012-12-01 17:52:00
12:52 PM,61.0,37.9,42,29.78,10.0,SW,13.8,-,N/A,,Clear,220,2012-12-01 18:52:00
1:52 PM,62.1,36.0,38,29.77,10.0,West,12.7,-,N/A,,Clear,270,2012-12-01 19:52:00
2:52 PM,60.1,37.0,42,29.78,10.0,WNW,12.7,-,N/A,,Clear,290,2012-12-01 20:52:00
3:52 PM,57.0,39.0,51,29.80,10.0,West,11.5,-,N/A,,Clear,280,2012-12-01 21:52:00
4:52 PM,52.0,37.0,57,29.84,10.0,West,4.6,-,N/A,,Clear,280,2012-12-01 22:52:00
5:52 PM,46.0,37.0,71,29.86,10.0,NW,5.8,-,N/A,,Clear,320,2012-12-01 23:52:00
6:52 PM,42.1,36.0,79,29.88,10.0,WNW,9.2,-,N/A,,Clear,300,2012-12-02 00:52:00
7:52 PM,37.9,35.1,89,29.89,10.0,West,8.1,-,N/A,,Clear,260,2012-12-02 01:52:00
8:52 PM,36.0,33.1,89,29.91,10.0,WSW,5.8,-,N/A,,Clear,250,2012-12-02 02:52:00
9:52 PM,33.1,30.9,92,29.91,10.0,WSW,9.2,-,N/A,,Clear,240,2012-12-02 03:52:00
10:52 PM,35.1,32.0,89,29.90,10.0,SW,11.5,-,N/A,,Clear,220,2012-12-02 04:52:00
11:52 PM,33.1,30.9,92,29.91,10.0,Variable,4.6,-,N/A,,Clear,0,2012-12-02 05:52:00